Miscellaneous Local Product
Issued by NWS North Platte, NE

Home | Current Version | Previous Version | Text Only | Print | Product List | Glossary On
Versions: 1 2 3 4 5 6 7 8 9 10 11 12 13 14 15 16 17 18 19 20 21 22 23 24 25 26 27 28 29 30 31 32 33 34 35 36 37 38 39 40 41 42 43 44 45 46 47 48 49 50
000
AXUS43 KLBF 191510
MISLBF


WESTERN AND NORTH CENTRAL NEBRASKA HOURLY WEATHER ROUNDUP
NATIONAL WEATHER SERVICE NORTH PLATTE NE
1000 AM CDT SAT APR 19 2014

***STATIONS NOT REPORTING VARIABLES SUCH AS SKY/WEATHER OR
PRESSURE ARE PROVIDED BY THE NEBRASKA DEPARTMENT OF
ROADS...RAWS...AND APRS NETWORKS...AND ARE NOT UNDER
NATIONAL WEATHER SERVICE QUALITY CONTROL***

...OBSERVATIONS IN AND NEAR THE EASTERN PANHANDLE OF NEBRASKA...

CITY           SKY/WX    TMP DP  RH WIND       PRES   REMARKS
PINE RIDGE     CLOUDY    53  19  26 NE13      30.04S
CHADRON        CLOUDY    51  30  44 CALM      30.05R
ALLIANCE       CLOUDY    49  31  49 NE15      30.04R
SIDNEY         CLOUDY    50  34  54 NE18      30.04R
WHITECLAY        N/A     49  22  33 N12         N/A
CRESCENT LAKE    N/A     51  28  41 NE14        N/A
LISCO            N/A     53  24  32 E13         N/A
BIG SPRINGS      N/A     53  42  67 NE17        N/A
LEWELLEN         N/A     58  33  39 NE15        N/A
$$

...OBSERVATIONS IN SOUTHWEST NEBRASKA AND FAR NORTHEAST COLORADO...

CITY           SKY/WX    TMP DP  RH WIND       PRES   REMARKS
WRAY           FAIR      58  45  61 N21       29.96R
HOLYOKE        FAIR      55  43  62 N22       29.99R
IMPERIAL       PTSUNNY   57  45  64 N15       29.95R
OGALLALA       PTSUNNY   55  37  50 NE23      30.00R
NORTH PLATTE   PTSUNNY   56  45  66 N12       29.98R
MCCOOK         PTSUNNY   57  47  69 E3        29.93S
LEXINGTON      PTSUNNY   56  49  75 SE5       29.96S
PAXTON           N/A     52  45  76 N14         N/A
SUTHERLAND       N/A     50  40  68 NE15        N/A
MEDICINE CREEK   N/A     54  49  83 CALM        N/A
GOTHENBURG       N/A     57  48  73 CALM        N/A
CALLAWAY         N/A     54  48  80 CALM        N/A
$$

...OBSERVATIONS IN NORTH CENTRAL NEBRASKA...

CITY           SKY/WX    TMP DP  RH WIND       PRES   REMARKS
VALENTINE      CLOUDY    53  31  42 N15       30.03R
THEDFORD       CLOUDY    55  36  50 N13       30.03R
AINSWORTH      PTSUNNY   55  36  48 N14       30.01S
O`NEILL        PTSUNNY   59  41  50 NE9       29.99S
ORD            MOSUNNY   58  47  66 SW5       29.98R
BROKEN BOW     PTSUNNY   56  47  71 SW5       29.97S
BROWNLEE         N/A     56  34  43 N15         N/A
SPRINGVIEW       N/A     55  38  52 NE5G13      N/A
DUNNING          N/A     54  39  58 E13         N/A
BREWSTER         N/A     56  42  58 NE7         N/A
ROSE             N/A     56  44  64 NE13        N/A
NEWPORT          N/A     56  40  55 NW9         N/A
COMSTOCK         N/A     64  51  62 SW8         N/A
CHAMBERS         N/A     63  43  48 CALM        N/A
EWING            N/A     61  46  57 SW12G18     N/A
$$

...SOME WEATHER OBSERVATIONS FROM AROUND THE REGION...

CITY           SKY/WX    TMP DP  RH WIND       PRES   REMARKS
DENVER         CLOUDY    58  34  40 NE16      30.04R
LARAMIE        PTSUNNY   44  31  60 S6        30.08R
CHEYENNE       CLOUDY    43  33  68 NE14      30.06R
SCOTTSBLUFF    CLOUDY    50  34  54 E8        30.06R
RAPID CITY     MOSUNNY   55  13  18 NW14      30.03R
PIERRE         MOSUNNY   51  33  50 W9        30.00R
WINNER         FAIR      55  33  43 NW16      30.01R
SIOUX FALLS    MOSUNNY   61  42  49 S18G25    29.96S
OMAHA          PTSUNNY   64  42  44 SE16      30.08R
GRAND ISLAND   PTSUNNY   63  47  55 S20       29.99F
KANSAS CITY    MOSUNNY   67  44  43 S15       30.15F
WICHITA        CLOUDY    63  46  54 S18       30.11F
HAYS           CLOUDY    64  48  55 S28       29.96F
LIBERAL        PTSUNNY   63  46  55 S22G31    30.02S
GOODLAND       MOSUNNY   61  44  53 N15       29.92S
$$



USA.gov is the U.S. government's official web portal to all federal, state and local government web resources and services.